TimeEST,TemperatureF,Dew PointF,Humidity,Sea Level PressureIn,VisibilityMPH,Wind Direction,Wind SpeedMPH,Gust SpeedMPH,PrecipitationIn,Events,Conditions,WindDirDegrees,DateUTC
12:54 AM,21.0,18.0,88,29.55,-9999.0,North,-9999.0,-,N/A,,Unknown,0,2012-12-30 05:54:00
1:54 AM,21.0,17.1,85,29.56,-9999.0,North,-9999.0,-,0.01,,Unknown,0,2012-12-30 06:54:00
2:54 AM,21.0,16.0,81,29.57,-9999.0,North,-9999.0,-,N/A,,Unknown,0,2012-12-30 07:54:00
3:54 AM,19.9,16.0,85,29.59,-9999.0,North,-9999.0,-,N/A,,Unknown,0,2012-12-30 08:54:00
4:54 AM,19.0,12.9,77,29.62,-9999.0,North,-9999.0,-,N/A,,Unknown,0,2012-12-30 09:54:00
5:54 AM,17.1,10.9,77,29.65,-9999.0,North,-9999.0,-,N/A,,Unknown,0,2012-12-30 10:54:00
6:54 AM,15.1,9.0,77,29.69,-9999.0,North,-9999.0,-,N/A,,Unknown,0,2012-12-30 11:54:00
7:54 AM,14.0,9.0,80,29.71,-9999.0,North,-9999.0,-,N/A,,Unknown,0,2012-12-30 12:54:00
8:54 AM,14.0,10.0,84,29.74,-9999.0,North,-9999.0,-,N/A,,Unknown,0,2012-12-30 13:54:00
9:54 AM,17.1,9.0,71,29.76,-9999.0,North,-9999.0,-,N/A,,Unknown,0,2012-12-30 14:54:00
10:54 AM,16.0,8.1,71,29.77,-9999.0,North,-9999.0,-,N/A,,Unknown,0,2012-12-30 15:54:00
11:54 AM,16.0,7.0,68,29.78,-9999.0,North,-9999.0,-,N/A,,Unknown,0,2012-12-30 16:54:00
12:54 PM,14.0,5.0,67,29.79,-9999.0,North,-9999.0,-,N/A,,Unknown,0,2012-12-30 17:54:00
1:54 PM,14.0,5.0,67,29.81,-9999.0,North,-9999.0,-,N/A,,Unknown,0,2012-12-30 18:54:00
2:54 PM,12.9,3.9,67,29.84,-9999.0,North,-9999.0,-,N/A,,Unknown,0,2012-12-30 19:54:00
3:54 PM,10.9,3.0,70,29.88,-9999.0,North,-9999.0,-,N/A,,Unknown,0,2012-12-30 20:54:00
4:54 PM,10.0,1.0,67,29.92,-9999.0,North,-9999.0,-,N/A,,Unknown,0,2012-12-30 21:54:00
5:54 PM,10.0,1.9,70,29.96,-9999.0,North,-9999.0,-,N/A,,Unknown,0,2012-12-30 22:54:00
6:54 PM,10.9,1.9,67,30.00,-9999.0,North,-9999.0,-,N/A,,Unknown,0,2012-12-30 23:54:00
7:54 PM,10.9,3.0,70,30.02,-9999.0,North,-9999.0,-,N/A,,Unknown,0,2012-12-31 00:54:00
8:54 PM,10.9,3.0,70,30.02,-9999.0,North,-9999.0,-,N/A,,Unknown,0,2012-12-31 01:54:00
9:54 PM,10.9,1.9,67,30.02,-9999.0,North,-9999.0,-,N/A,,Unknown,0,2012-12-31 02:54:00
10:54 PM,10.9,3.0,70,30.04,-9999.0,North,-9999.0,-,N/A,,Unknown,0,2012-12-31 03:54:00
11:54 PM,10.9,3.0,70,30.04,-9999.0,North,-9999.0,-,N/A,,Unknown,0,2012-12-31 04:54:00